This is the latest recevied weather packets stored in our database for station/object EA5JPW-10. If no packets are shown the sender has not sent any weather packets the latest 10 day(s).
| Time | Temp. | Humidity | Pressure | Rain* | Wind** | Luminosity | Snow |
|---|---|---|---|---|---|---|---|
| 1777417442 | 16.67° C | 43% | 989.6 hPa | - | - | - | - |
| 1777416542 | 16.67° C | 44% | 989.6 hPa | - | - | - | - |
| 1777415641 | 17.22° C | 43% | 989.6 hPa | - | - | - | - |
| 1777414741 | 17.22° C | 44% | 989.5 hPa | - | - | - | - |
| 1777413841 | 17.78° C | 43% | 989.6 hPa | - | - | - | - |
| 1777412941 | 18.33° C | 43% | 989.9 hPa | - | - | - | - |
| 1777412041 | 18.33° C | 43% | 990 hPa | - | - | - | - |
| 1777411141 | 18.33° C | 43% | 990.2 hPa | - | - | - | - |
| 1777410240 | 18.33° C | 43% | 990.2 hPa | - | - | - | - |
| 1777409340 | 18.33° C | 43% | 990.1 hPa | - | - | - | - |
| 1777408440 | 18.33° C | 43% | 990.3 hPa | - | - | - | - |
| 1777407539 | 18.33° C | 42% | 990.3 hPa | - | - | - | - |
| 1777406639 | 17.78° C | 43% | 989.8 hPa | - | - | - | - |
| 1777405741 | 17.78° C | 42% | 989.9 hPa | - | - | - | - |
| 1777404841 | 17.78° C | 43% | 989.8 hPa | - | - | - | - |
| 1777403941 | 17.78° C | 43% | 989.6 hPa | - | - | - | - |
| 1777403041 | 18.33° C | 43% | 989.4 hPa | - | - | - | - |
| 1777402141 | 18.89° C | 42% | 989.2 hPa | - | - | - | - |
| 1777401240 | 19.44° C | 42% | 988.8 hPa | - | - | - | - |
| 1777400340 | 20.56° C | 42% | 988.5 hPa | - | - | - | - |
| 1777399440 | 22.22° C | 40% | 988.2 hPa | - | - | - | - |
| 1777398540 | 23.89° C | 39% | 987.6 hPa | - | - | - | - |
| 1777397640 | 26.67° C | 38% | 987.1 hPa | - | - | - | - |
| 1777396739 | 30.56° C | 35% | 986.5 hPa | - | - | - | - |
| 1777395839 | 32.78° C | 34% | 987.1 hPa | - | - | - | - |
* Rain since midnight (hover to see other rain measurements)
** Current wind speed in m/s (hover to see current wind gust speed)